,,,PA_Meas_PMT16A,,PR_Meas_QMR101_102,,RH_Meas_QMH101,,SR_Meas_QMS101,,TA_Meas_QMH101,,GenWind,,GenWind,
date,time,status,PA,status,PR,status,RH,status,SR,status,TA,status,DirAvg,status,SpdAvg,
2011-03-27, 00:00:04,VALID,1003.23,VALID,0,INVALID,163.716,VALID,0,VALID,24.4804,VALID,5,VALID,0.142969,
2011-03-27, 00:01:04,VALID,1003.19,VALID,0,INVALID,163.662,VALID,0,VALID,24.4804,VALID,5,VALID,0,
2011-03-27, 00:02:04,VALID,1003.21,VALID,0,INVALID,163.701,VALID,0,VALID,24.4804,VALID,360,VALID,0.513281,
2011-03-27, 00:03:04,VALID,1003.25,VALID,0,INVALID,163.693,VALID,0,VALID,24.4804,VALID,360,VALID,0.0164062,
2011-03-27, 00:04:04,VALID,1003.24,VALID,0,INVALID,163.731,VALID,0,VALID,24.5212,VALID,360,VALID,0.334766,
2011-03-27, 00:05:04,VALID,1003.24,VALID,0,INVALID,163.678,VALID,0,VALID,24.4804,VALID,360,VALID,0.256641,
2011-03-27, 00:06:04,VALID,1003.25,VALID,0,INVALID,163.685,VALID,0,VALID,24.4998,VALID,360,VALID,0.260547,
2011-03-27, 00:07:04,VALID,1003.24,VALID,0,INVALID,163.708,VALID,0,VALID,24.5017,VALID,360,VALID,0.0109375,
2011-03-27, 00:08:04,VALID,1003.29,VALID,0,INVALID,163.708,VALID,0,VALID,24.4998,VALID,360,VALID,0,
2011-03-27, 00:09:04,VALID,1003.28,VALID,0,INVALID,163.723,VALID,0,VALID,24.5212,VALID,360,VALID,0,
2011-03-27, 00:10:04,VALID,1003.27,VALID,0,INVALID,163.723,VALID,0,VALID,24.5406,VALID,360,VALID,0.160156,
2011-03-27, 00:11:04,VALID,1003.28,VALID,0,INVALID,163.716,VALID,0,VALID,24.5193,VALID,360,VALID,0.189063,
2011-03-27, 00:12:04,VALID,1003.29,VALID,0,INVALID,163.701,VALID,0,VALID,24.4998,VALID,360,VALID,0,
2011-03-27, 00:13:04,VALID,1003.27,VALID,0,INVALID,163.708,VALID,0,VALID,24.4785,VALID,360,VALID,0,
2011-03-27, 00:14:04,VALID,1003.29,VALID,0,INVALID,163.678,VALID,0,VALID,24.4998,VALID,360,VALID,0.421094,
2011-03-27, 00:15:04,VALID,1003.28,VALID,0,INVALID,163.693,VALID,0,VALID,24.5193,VALID,3,VALID,0.0820313,
2011-03-27, 00:16:04,VALID,1003.3,VALID,0,INVALID,163.678,VALID,0,VALID,24.5193,VALID,3,VALID,0.000390625,
2011-03-27, 00:17:04,VALID,1003.3,VALID,0,INVALID,163.693,VALID,0,VALID,24.5193,VALID,273,VALID,0.379297,
2011-03-27, 00:18:04,VALID,1003.3,VALID,0,INVALID,163.662,VALID,0,VALID,24.5582,VALID,273,VALID,0.415625,
2011-03-27, 00:19:04,VALID,1003.28,VALID,0,INVALID,163.693,VALID,0,VALID,24.5777,VALID,273,VALID,0.208203,
2011-03-27, 00:20:04,VALID,1003.28,VALID,0,INVALID,163.685,VALID,0,VALID,24.6185,VALID,273,VALID,0.0105469,
2011-03-27, 00:21:04,VALID,1003.28,VALID,0,INVALID,163.723,VALID,0,VALID,24.6166,VALID,273,VALID,0.167187,
2011-03-27, 00:22:04,VALID,1003.28,VALID,0,INVALID,163.708,VALID,0,VALID,24.6361,VALID,273,VALID,0,
2011-03-27, 00:23:04,VALID,1003.25,VALID,0,INVALID,163.678,VALID,0,VALID,24.6769,VALID,288,VALID,0.440234,
2011-03-27, 00:24:04,VALID,1003.22,VALID,0,INVALID,163.693,VALID,0,VALID,24.6556,VALID,267,VALID,0.346875,
2011-03-27, 00:25:04,VALID,1003.2,VALID,0,INVALID,163.708,VALID,0,VALID,24.6945,VALID,271,VALID,0.129688,
2011-03-27, 00:26:04,VALID,1003.17,VALID,0,INVALID,163.693,VALID,0,VALID,24.7353,VALID,38,VALID,0.370703,
2011-03-27, 00:27:04,VALID,1003.16,VALID,0,INVALID,163.67,VALID,0,VALID,24.714,VALID,43,VALID,0.0691406,
2011-03-27, 00:28:04,VALID,1003.14,VALID,0,INVALID,163.708,VALID,0,VALID,24.7335,VALID,15,VALID,0.328906,
2011-03-27, 00:29:04,VALID,1003.09,VALID,0,INVALID,163.685,VALID,0,VALID,24.7335,VALID,15,VALID,0.256641,
2011-03-27, 00:30:04,VALID,1003.09,VALID,0,INVALID,163.678,VALID,0,VALID,24.7335,VALID,289,VALID,0.420703,
2011-03-27, 00:31:04,VALID,1003.05,VALID,0,INVALID,163.685,VALID,0,VALID,24.7335,VALID,288,VALID,0.414063,
2011-03-27, 00:32:04,VALID,1003.02,VALID,0,INVALID,163.685,VALID,0,VALID,24.7529,VALID,288,VALID,0.0964844,
2011-03-27, 00:33:04,VALID,1002.98,VALID,0,INVALID,163.685,VALID,0,VALID,24.7548,VALID,288,VALID,0,
2011-03-27, 00:34:04,VALID,1002.93,VALID,0,INVALID,163.685,VALID,0,VALID,24.7335,VALID,288,VALID,0,
2011-03-27, 00:35:04,VALID,1002.89,VALID,0,INVALID,163.655,VALID,0,VALID,24.7353,VALID,288,VALID,0.177344,
2011-03-27, 00:36:04,VALID,1002.85,VALID,0,INVALID,163.685,VALID,0,VALID,24.7353,VALID,288,VALID,0,
2011-03-27, 00:37:04,VALID,1002.81,VALID,0,INVALID,163.678,VALID,0,VALID,24.7159,VALID,288,VALID,0,
2011-03-27, 00:38:04,VALID,1002.79,VALID,0,INVALID,163.67,VALID,0,VALID,24.6945,VALID,288,VALID,0.2375,
2011-03-27, 00:39:04,VALID,1002.75,VALID,0,INVALID,163.67,VALID,0,VALID,24.6964,VALID,288,VALID,0.146875,
2011-03-27, 00:40:04,VALID,1002.74,VALID,0,INVALID,163.678,VALID,0,VALID,24.675,VALID,288,VALID,0,
2011-03-27, 00:41:04,VALID,1002.72,VALID,0,INVALID,163.708,VALID,0,VALID,24.675,VALID,288,VALID,0.267969,
2011-03-27, 00:42:04,VALID,1002.67,VALID,0,INVALID,163.67,VALID,0,VALID,24.6556,VALID,288,VALID,0.319531,
2011-03-27, 00:43:04,VALID,1002.63,VALID,0,INVALID,163.693,VALID,0,VALID,24.6574,VALID,332,VALID,0.434375,
2011-03-27, 00:44:04,VALID,1002.62,VALID,0,INVALID,163.678,VALID,0,VALID,24.6361,VALID,332,VALID,0.0214844,
2011-03-27, 00:45:04,VALID,1002.62,VALID,0,INVALID,163.708,VALID,0,VALID,24.6574,VALID,342,VALID,0.403906,
2011-03-27, 00:46:04,VALID,1002.53,VALID,0,INVALID,163.678,VALID,0,VALID,24.6361,VALID,342,VALID,0.146875,
2011-03-27, 00:47:04,VALID,1002.5,VALID,0,INVALID,163.67,VALID,0,VALID,24.6574,VALID,342,VALID,0.424609,
2011-03-27, 00:48:04,VALID,1002.44,VALID,0,INVALID,163.67,VALID,0,VALID,24.6166,VALID,342,VALID,0.133203,
2011-03-27, 00:49:04,VALID,1002.47,VALID,0,INVALID,163.693,VALID,0,VALID,24.6166,VALID,317,VALID,0.151953,
2011-03-27, 00:50:04,VALID,1002.45,VALID,0,INVALID,163.685,VALID,0,VALID,24.6166,VALID,325,VALID,0,
2011-03-27, 00:51:04,VALID,1002.41,VALID,0,INVALID,163.708,VALID,0,VALID,24.6166,VALID,325,VALID,0,
2011-03-27, 00:52:04,VALID,1002.37,VALID,0,INVALID,163.685,VALID,0,VALID,24.6166,VALID,321,VALID,0.232422,
2011-03-27, 00:53:04,VALID,1002.39,VALID,0,INVALID,163.685,VALID,0,VALID,24.6166,VALID,319,VALID,0.182422,
2011-03-27, 00:54:04,VALID,1002.41,VALID,0,INVALID,163.67,VALID,0,VALID,24.638,VALID,319,VALID,0.304297,
2011-03-27, 00:55:04,VALID,1002.4,VALID,0,INVALID,163.685,VALID,0,VALID,24.6361,VALID,298,VALID,0.480078,
2011-03-27, 00:56:04,VALID,1002.37,VALID,0,INVALID,163.685,VALID,0,VALID,24.6574,VALID,303,VALID,0,
2011-03-27, 00:57:04,VALID,1002.39,VALID,0,INVALID,163.67,VALID,0,VALID,24.6556,VALID,302,VALID,0,
2011-03-27, 00:58:04,VALID,1002.41,VALID,0,INVALID,163.67,VALID,0,VALID,24.6574,VALID,287,VALID,0.764844,
2011-03-27, 00:59:04,VALID,1002.37,VALID,0,INVALID,163.693,VALID,0,VALID,24.6769,VALID,307,VALID,0.335938,
2011-03-27, 01:00:04,VALID,1002.35,VALID,0,INVALID,163.693,VALID,0,VALID,24.6556,VALID,339,VALID,0.697656,
2011-03-27, 01:01:04,VALID,1002.32,VALID,0,INVALID,163.662,VALID,0,VALID,24.6769,VALID,343,VALID,0.0472656,
2011-03-27, 01:02:04,VALID,1002.33,VALID,0,INVALID,163.678,VALID,0,VALID,24.6769,VALID,291,VALID,0.782812,
2011-03-27, 01:03:04,VALID,1002.33,VALID,0,INVALID,163.693,VALID,0,VALID,24.6556,VALID,301,VALID,0.369141,
2011-03-27, 01:04:04,VALID,1002.34,VALID,0,INVALID,163.678,VALID,0,VALID,24.675,VALID,319,VALID,0.249219,
2011-03-27, 01:05:04,VALID,1002.35,VALID,0,INVALID,163.685,VALID,0,VALID,24.675,VALID,292,VALID,0.61875,
2011-03-27, 01:06:04,VALID,1002.37,VALID,0,INVALID,163.662,VALID,0,VALID,24.6964,VALID,344,VALID,0.798437,
2011-03-27, 01:07:04,VALID,1002.34,VALID,0,INVALID,163.693,VALID,0,VALID,24.6964,VALID,299,VALID,0.328516,
2011-03-27, 01:08:04,VALID,1002.33,VALID,0,INVALID,163.67,VALID,0,VALID,24.675,VALID,313,VALID,1.47031,
2011-03-27, 01:09:04,VALID,1002.34,VALID,0,INVALID,163.693,VALID,0,VALID,24.6556,VALID,293,VALID,1.63555,
2011-03-27, 01:10:04,VALID,1002.32,VALID,0,INVALID,163.67,VALID,0,VALID,24.6556,VALID,294,VALID,1.17734,
2011-03-27, 01:11:04,VALID,1002.31,VALID,0,INVALID,163.678,VALID,0,VALID,24.6574,VALID,295,VALID,1.40859,
2011-03-27, 01:12:04,VALID,1002.27,VALID,0,INVALID,163.647,VALID,0,VALID,24.5972,VALID,302,VALID,1.1293,
2011-03-27, 01:13:04,VALID,1002.26,VALID,0,INVALID,163.701,VALID,0,VALID,24.5796,VALID,335,VALID,0.514844,
2011-03-27, 01:14:04,VALID,1002.23,VALID,0,INVALID,163.723,VALID,0,VALID,24.5601,VALID,319,VALID,1.15117,
2011-03-27, 01:15:04,VALID,1002.23,VALID,0,INVALID,163.708,VALID,0,VALID,24.5212,VALID,287,VALID,0.826563,
2011-03-27, 01:16:04,VALID,1002.2,VALID,0,INVALID,163.662,VALID,0,VALID,24.4998,VALID,302,VALID,1.13633,
2011-03-27, 01:17:04,VALID,1002.17,VALID,0,INVALID,163.701,VALID,0,VALID,24.5017,VALID,313,VALID,0.58125,
2011-03-27, 01:18:04,VALID,1002.16,VALID,0,INVALID,163.701,VALID,0,VALID,24.4609,VALID,264,VALID,0.837109,
2011-03-27, 01:19:04,VALID,1002.12,VALID,0,INVALID,163.708,VALID,0,VALID,24.4628,VALID,353,VALID,1.04961,
2011-03-27, 01:20:04,VALID,1002.16,VALID,0,INVALID,163.693,VALID,0,VALID,24.4238,VALID,354,VALID,0.932813,
2011-03-27, 01:21:04,VALID,1002.14,VALID,0,INVALID,163.701,VALID,0,VALID,24.3636,VALID,298,VALID,1.23711,
2011-03-27, 01:22:04,VALID,1002.11,VALID,0,INVALID,163.716,VALID,0,VALID,24.3459,VALID,349,VALID,0.437109,
2011-03-27, 01:23:04,VALID,1002.07,VALID,0,INVALID,163.701,VALID,0,VALID,24.307,VALID,355,VALID,0.833984,
2011-03-27, 01:24:04,VALID,1002.01,VALID,0,INVALID,163.723,VALID,0,VALID,24.2662,VALID,356,VALID,0.900781,
2011-03-27, 01:25:04,VALID,1001.96,VALID,0,INVALID,163.723,VALID,0,VALID,24.2468,VALID,346,VALID,0.333594,
2011-03-27, 01:26:04,VALID,1001.95,VALID,0,INVALID,163.723,VALID,0,VALID,24.2291,VALID,338,VALID,0.241406,
2011-03-27, 01:27:04,VALID,1001.93,VALID,0,INVALID,163.701,VALID,0,VALID,24.2078,VALID,286,VALID,0.894141,
2011-03-27, 01:28:04,VALID,1001.86,VALID,0,INVALID,163.716,VALID,0,VALID,24.1884,VALID,280,VALID,0.216016,
2011-03-27, 01:29:04,VALID,1001.82,VALID,0,INVALID,163.708,VALID,0,VALID,24.1707,VALID,280,VALID,0.150391,
2011-03-27, 01:30:04,VALID,1001.78,VALID,0,INVALID,163.723,VALID,0,VALID,24.1494,VALID,280,VALID,0.0566406,
2011-03-27, 01:31:04,VALID,1001.74,VALID,0,INVALID,163.701,VALID,0,VALID,24.1494,VALID,280,VALID,0.0984375,
2011-03-27, 01:32:04,VALID,1001.73,VALID,0,INVALID,163.723,VALID,0,VALID,24.1318,VALID,280,VALID,0.211719,
2011-03-27, 01:33:04,VALID,1001.68,VALID,0,INVALID,163.739,VALID,0,VALID,24.0716,VALID,331,VALID,0.410547,
2011-03-27, 01:34:04,VALID,1001.68,VALID,0,INVALID,163.731,VALID,0,VALID,24.0734,VALID,346,VALID,0.348828,
2011-03-27, 01:35:04,VALID,1001.62,VALID,0,INVALID,163.731,VALID,0,VALID,24.0734,VALID,342,VALID,0.353906,
2011-03-27, 01:36:04,VALID,1001.6,VALID,0,INVALID,163.746,VALID,0,VALID,24.0521,VALID,297,VALID,0.589453,
2011-03-27, 01:37:04,VALID,1001.58,VALID,0.5,INVALID,163.739,VALID,0,VALID,24.0326,VALID,296,VALID,0.0828125,
2011-03-27, 01:38:04,VALID,1001.55,VALID,0,INVALID,163.723,VALID,0,VALID,23.9937,VALID,296,VALID,0.078125,
2011-03-27, 01:39:04,VALID,1001.51,VALID,0,INVALID,163.762,VALID,0,VALID,23.9955,VALID,328,VALID,0.435937,
2011-03-27, 01:40:04,VALID,1001.54,VALID,0,INVALID,163.731,VALID,0,VALID,23.9566,VALID,328,VALID,0.0898438,
2011-03-27, 01:41:04,VALID,1001.51,VALID,0,INVALID,163.731,VALID,0,VALID,23.9566,VALID,325,VALID,0.472656,
2011-03-27, 01:42:04,VALID,1001.48,VALID,0,INVALID,163.739,VALID,0,VALID,23.9353,VALID,313,VALID,0.298047,
2011-03-27, 01:43:04,VALID,1001.46,VALID,0,INVALID,163.739,VALID,0,VALID,23.8964,VALID,289,VALID,0.208203,
2011-03-27, 01:44:04,VALID,1001.45,VALID,0,INVALID,163.739,VALID,0,VALID,23.8769,VALID,286,VALID,0.0207031,
2011-03-27, 01:45:04,VALID,1001.42,VALID,0,INVALID,163.769,VALID,0.100563,VALID,23.8769,VALID,286,VALID,0.0113281,
2011-03-27, 01:46:04,VALID,1001.41,VALID,0,INVALID,163.777,VALID,0,VALID,23.8575,VALID,332,VALID,0.454688,
2011-03-27, 01:47:04,VALID,1001.4,VALID,0,INVALID,163.762,VALID,0,VALID,23.7991,VALID,344,VALID,0.613281,
2011-03-27, 01:48:04,VALID,1001.39,VALID,0,INVALID,163.746,VALID,0,VALID,23.7796,VALID,354,VALID,0.590625,
2011-03-27, 01:49:04,VALID,1001.38,VALID,0,INVALID,163.746,VALID,0,VALID,23.7601,VALID,353,VALID,0.544141,
2011-03-27, 01:50:04,VALID,1001.4,VALID,0,INVALID,163.769,VALID,0,VALID,23.723,VALID,336,VALID,0.194922,
2011-03-27, 01:51:04,VALID,1001.39,VALID,0,INVALID,163.754,VALID,0,VALID,23.723,VALID,336,VALID,0,
2011-03-27, 01:52:04,VALID,1001.34,VALID,0,INVALID,163.769,VALID,0,VALID,23.6823,VALID,327,VALID,0.308203,
2011-03-27, 01:53:04,VALID,1001.36,VALID,0,INVALID,163.739,VALID,0,VALID,23.6823,VALID,293,VALID,0.396484,
2011-03-27, 01:54:04,VALID,1001.33,VALID,0,INVALID,163.784,VALID,0,VALID,23.6628,VALID,293,VALID,0.25,
2011-03-27, 01:55:04,VALID,1001.31,VALID,0,INVALID,163.746,VALID,0,VALID,23.6841,VALID,301,VALID,0.416797,
2011-03-27, 01:56:04,VALID,1001.25,VALID,0,INVALID,163.762,VALID,0,VALID,23.6416,VALID,319,VALID,0.345703,
2011-03-27, 01:57:04,VALID,1001.23,VALID,0,INVALID,163.769,VALID,0,VALID,23.6239,VALID,355,VALID,0.109766,
2011-03-27, 01:58:04,VALID,1001.24,VALID,0,INVALID,163.754,VALID,0,VALID,23.6044,VALID,355,VALID,0,
2011-03-27, 01:59:04,VALID,1001.22,VALID,0,INVALID,163.769,VALID,0,VALID,23.585,VALID,355,VALID,0.152344,
2011-03-27, 02:00:04,VALID,1001.21,VALID,0,INVALID,163.762,VALID,0,VALID,23.585,VALID,352,VALID,0.35,
2011-03-27, 02:01:04,VALID,1001.23,VALID,0,INVALID,163.777,VALID,0,VALID,23.585,VALID,318,VALID,0.228125,
2011-03-27, 02:02:04,VALID,1001.21,VALID,0,INVALID,163.746,VALID,0,VALID,23.585,VALID,318,VALID,0.00351562,
2011-03-27, 02:03:04,VALID,1001.22,VALID,0,INVALID,163.754,VALID,0,VALID,23.5637,VALID,318,VALID,0.300391,
2011-03-27, 02:04:04,VALID,1001.25,VALID,0,INVALID,163.754,VALID,0,VALID,23.5868,VALID,339,VALID,0.488672,
2011-03-27, 02:05:04,VALID,1001.26,VALID,0,INVALID,163.746,VALID,0,VALID,23.5443,VALID,345,VALID,0.291406,
2011-03-27, 02:06:04,VALID,1001.25,VALID,0,INVALID,163.762,VALID,0,VALID,23.5673,VALID,346,VALID,0.602734,
2011-03-27, 02:07:04,VALID,1001.26,VALID,0,INVALID,163.746,VALID,0,VALID,23.5673,VALID,353,VALID,0.662109,
2011-03-27, 02:08:04,VALID,1001.26,VALID,0,INVALID,163.784,VALID,0,VALID,23.546,VALID,353,VALID,0.423047,
2011-03-27, 02:09:04,VALID,1001.25,VALID,0,INVALID,163.784,VALID,0,VALID,23.5248,VALID,348,VALID,0.599219,
2011-03-27, 02:10:04,VALID,1001.27,VALID,0,INVALID,163.792,VALID,0,VALID,23.5266,VALID,348,VALID,0.540234,
2011-03-27, 02:11:04,VALID,1001.27,VALID,0,INVALID,163.762,VALID,0,VALID,23.5071,VALID,349,VALID,0.575781,
2011-03-27, 02:12:04,VALID,1001.29,VALID,0,INVALID,163.777,VALID,0,VALID,23.4877,VALID,348,VALID,0.685547,
2011-03-27, 02:13:04,VALID,1001.29,VALID,0,INVALID,163.769,VALID,0,VALID,23.4877,VALID,348,VALID,0.689062,
2011-03-27, 02:14:04,VALID,1001.29,VALID,0,INVALID,163.769,VALID,0,VALID,23.4894,VALID,349,VALID,0.435937,
2011-03-27, 02:15:04,VALID,1001.22,VALID,0,INVALID,163.784,VALID,0,VALID,23.5107,VALID,349,VALID,0.141797,
2011-03-27, 02:16:04,VALID,1001.27,VALID,0,INVALID,163.762,VALID,0,VALID,23.4894,VALID,349,VALID,0,
2011-03-27, 02:17:04,VALID,1001.25,VALID,0,INVALID,163.784,VALID,0,VALID,23.4894,VALID,339,VALID,0.526563,
2011-03-27, 02:18:04,VALID,1001.24,VALID,0,INVALID,163.762,VALID,0,VALID,23.4912,VALID,297,VALID,0.278125,
2011-03-27, 02:19:04,VALID,1001.27,VALID,0,INVALID,163.762,VALID,0,VALID,23.4894,VALID,297,VALID,0.48125,
2011-03-27, 02:20:04,VALID,1001.28,VALID,0,INVALID,163.762,VALID,0,VALID,23.5089,VALID,297,VALID,0.396094,
2011-03-27, 02:21:04,VALID,1001.27,VALID,0,INVALID,163.777,VALID,0,VALID,23.5089,VALID,297,VALID,0,
2011-03-27, 02:22:04,VALID,1001.25,VALID,0,INVALID,163.762,VALID,0,VALID,23.5089,VALID,344,VALID,0.673437,
2011-03-27, 02:23:04,VALID,1001.27,VALID,0,INVALID,163.784,VALID,0,VALID,23.4894,VALID,351,VALID,0.648438,
2011-03-27, 02:24:04,VALID,1001.29,VALID,0,INVALID,163.769,VALID,0,VALID,23.4894,VALID,351,VALID,0.624609,
2011-03-27, 02:25:04,VALID,1001.28,VALID,0,INVALID,163.777,VALID,0,VALID,23.4894,VALID,1,VALID,0.593359,
2011-03-27, 02:26:04,VALID,1001.26,VALID,0,INVALID,163.777,VALID,0,VALID,23.4894,VALID,1,VALID,0.385547,
2011-03-27, 02:27:04,VALID,1001.31,VALID,0,INVALID,163.769,VALID,0,VALID,23.47,VALID,329,VALID,0.447656,
2011-03-27, 02:28:04,VALID,1001.3,VALID,0,INVALID,163.777,VALID,0,VALID,23.4894,VALID,343,VALID,0.448047,
2011-03-27, 02:29:04,VALID,1001.3,VALID,0,INVALID,163.769,VALID,0,VALID,23.4912,VALID,344,VALID,0.283594,
2011-03-27, 02:30:04,VALID,1001.31,VALID,0,INVALID,163.762,VALID,0,VALID,23.47,VALID,344,VALID,0,
2011-03-27, 02:31:04,VALID,1001.3,VALID,0,INVALID,163.762,VALID,0,VALID,23.47,VALID,344,VALID,0,
2011-03-27, 02:32:04,VALID,1001.32,VALID,0,INVALID,163.769,VALID,0,VALID,23.4293,VALID,344,VALID,0.0359375,
2011-03-27, 02:33:04,VALID,1001.33,VALID,0,INVALID,163.792,VALID,0,VALID,23.4505,VALID,344,VALID,0,
2011-03-27, 02:34:04,VALID,1001.31,VALID,0,INVALID,163.769,VALID,0,VALID,23.4311,VALID,345,VALID,0.405469,
2011-03-27, 02:35:04,VALID,1001.34,VALID,0,INVALID,163.784,VALID,0,VALID,23.4311,VALID,352,VALID,0.599219,
2011-03-27, 02:36:04,VALID,1001.34,VALID,0,INVALID,163.784,VALID,0,VALID,23.4098,VALID,353,VALID,0.565625,
2011-03-27, 02:37:04,VALID,1001.31,VALID,0,INVALID,163.762,VALID,0,VALID,23.4116,VALID,353,VALID,0.345313,
2011-03-27, 02:38:04,VALID,1001.33,VALID,0,INVALID,163.8,VALID,0,VALID,23.3921,VALID,347,VALID,0.49375,
2011-03-27, 02:39:04,VALID,1001.34,VALID,0,INVALID,163.8,VALID,0,VALID,23.3904,VALID,351,VALID,0.483203,
2011-03-27, 02:40:04,VALID,1001.33,VALID,0,INVALID,163.777,VALID,0,VALID,23.3921,VALID,357,VALID,0.616016,
2011-03-27, 02:41:04,VALID,1001.33,VALID,0,INVALID,163.777,VALID,0,VALID,23.3921,VALID,356,VALID,0.330859,
2011-03-27, 02:42:04,VALID,1001.32,VALID,0,INVALID,163.784,VALID,0,VALID,23.4134,VALID,356,VALID,0.698047,
2011-03-27, 02:43:04,VALID,1001.34,VALID,0,INVALID,163.792,VALID,0,VALID,23.3921,VALID,355,VALID,0.847266,
2011-03-27, 02:44:04,VALID,1001.32,VALID,0,INVALID,163.784,VALID,0,VALID,23.3904,VALID,356,VALID,0.880859,
2011-03-27, 02:45:04,VALID,1001.3,VALID,0,INVALID,163.777,VALID,0,VALID,23.3904,VALID,341,VALID,0.845312,
2011-03-27, 02:46:04,VALID,1001.29,VALID,0,INVALID,163.777,VALID,0,VALID,23.4098,VALID,355,VALID,0.746484,
2011-03-27, 02:47:04,VALID,1001.3,VALID,0,INVALID,163.784,VALID,0.100563,VALID,23.4293,VALID,301,VALID,0.571875,
2011-03-27, 02:48:04,VALID,1001.29,VALID,0,INVALID,163.777,VALID,0,VALID,23.4293,VALID,353,VALID,0.705859,
2011-03-27, 02:49:04,VALID,1001.29,VALID,0,INVALID,163.784,VALID,0.100563,VALID,23.4293,VALID,350,VALID,0.572266,
2011-03-27, 02:50:04,VALID,1001.26,VALID,0,INVALID,163.754,VALID,0,VALID,23.4293,VALID,360,VALID,0.655859,
2011-03-27, 02:51:04,VALID,1001.25,VALID,0,INVALID,163.762,VALID,0,VALID,23.4487,VALID,341,VALID,0.535547,
2011-03-27, 02:52:04,VALID,1001.24,VALID,0,INVALID,163.754,VALID,0,VALID,23.4487,VALID,357,VALID,0.276953,
2011-03-27, 02:53:04,VALID,1001.23,VALID,0,INVALID,163.792,VALID,0.100563,VALID,23.4682,VALID,353,VALID,0.496094,
2011-03-27, 02:54:04,VALID,1001.2,VALID,0,INVALID,163.769,VALID,0,VALID,23.447,VALID,277,VALID,0.260547,
2011-03-27, 02:55:04,VALID,1001.18,VALID,0,INVALID,163.769,VALID,0.100563,VALID,23.4664,VALID,287,VALID,0.769922,
2011-03-27, 02:56:04,VALID,1001.16,VALID,0,INVALID,163.777,VALID,0.100563,VALID,23.4877,VALID,301,VALID,0.217578,
2011-03-27, 02:57:04,VALID,1001.17,VALID,0,INVALID,163.762,VALID,0,VALID,23.4877,VALID,329,VALID,0.595312,
2011-03-27, 02:58:04,VALID,1001.2,VALID,0,INVALID,163.769,VALID,0.100563,VALID,23.5071,VALID,260,VALID,0.370313,
2011-03-27, 02:59:04,VALID,1001.15,VALID,0,INVALID,163.762,VALID,0,VALID,23.4894,VALID,306,VALID,0.329688,
2011-03-27, 03:00:04,VALID,1001.14,VALID,0,INVALID,163.754,VALID,0,VALID,23.4894,VALID,321,VALID,0.240234,
2011-03-27, 03:01:04,VALID,1001.13,VALID,0,INVALID,163.731,VALID,0,VALID,23.47,VALID,345,VALID,0.632031,
2011-03-27, 03:02:04,VALID,1001.11,VALID,0,INVALID,163.784,VALID,0,VALID,23.4894,VALID,313,VALID,0.357812,
2011-03-27, 03:03:04,VALID,1001.1,VALID,0,INVALID,163.792,VALID,0,VALID,23.4894,VALID,28,VALID,0.258984,
2011-03-27, 03:04:04,VALID,1001.09,VALID,0,INVALID,163.777,VALID,0,VALID,23.4894,VALID,2,VALID,0.448828,
2011-03-27, 03:05:04,VALID,1001.05,VALID,0,INVALID,163.784,VALID,0,VALID,23.4682,VALID,358,VALID,0.966797,
2011-03-27, 03:06:04,VALID,1001.04,VALID,0,INVALID,163.769,VALID,0,VALID,23.4894,VALID,360,VALID,0.282813,
2011-03-27, 03:07:04,VALID,1001.06,VALID,0,INVALID,163.792,VALID,0,VALID,23.47,VALID,358,VALID,0.983594,
2011-03-27, 03:08:04,VALID,1001.04,VALID,0,INVALID,163.784,VALID,0,VALID,23.4894,VALID,4,VALID,0.533594,
2011-03-27, 03:09:04,VALID,1001.04,VALID,0,INVALID,163.769,VALID,0,VALID,23.4505,VALID,2,VALID,0.526953,
2011-03-27, 03:10:04,VALID,1001.02,VALID,0,INVALID,163.792,VALID,0,VALID,23.47,VALID,346,VALID,0.224219,
2011-03-27, 03:11:04,VALID,1001.01,VALID,0,INVALID,163.777,VALID,0,VALID,23.4487,VALID,358,VALID,0.271094,
2011-03-27, 03:12:04,VALID,1001.01,VALID,0,INVALID,163.777,VALID,0,VALID,23.4894,VALID,357,VALID,0.166406,
2011-03-27, 03:13:04,VALID,1000.98,VALID,0,INVALID,163.777,VALID,0,VALID,23.47,VALID,357,VALID,0.190234,
2011-03-27, 03:14:04,VALID,1000.95,VALID,0,INVALID,163.762,VALID,0.100563,VALID,23.447,VALID,357,VALID,0.214453,
2011-03-27, 03:15:04,VALID,1000.97,VALID,0,INVALID,163.784,VALID,0,VALID,23.4682,VALID,343,VALID,0.351172,
2011-03-27, 03:16:04,VALID,1000.92,VALID,0,INVALID,163.784,VALID,0,VALID,23.4487,VALID,274,VALID,0.332812,
2011-03-27, 03:17:04,VALID,1000.91,VALID,0,INVALID,163.777,VALID,0,VALID,23.4487,VALID,275,VALID,0.305859,
2011-03-27, 03:18:04,VALID,1000.91,VALID,0,INVALID,163.769,VALID,0.100563,VALID,23.4487,VALID,336,VALID,0.383594,
2011-03-27, 03:19:04,VALID,1000.86,VALID,0,INVALID,163.784,VALID,0,VALID,23.4487,VALID,341,VALID,0.226953,
2011-03-27, 03:20:04,VALID,1000.84,VALID,0,INVALID,163.762,VALID,0.100563,VALID,23.4293,VALID,341,VALID,0,
2011-03-27, 03:21:04,VALID,1000.86,VALID,0,INVALID,163.754,VALID,0.100563,VALID,23.4487,VALID,342,VALID,0.263281,
2011-03-27, 03:22:04,VALID,1000.82,VALID,0,INVALID,163.777,VALID,0,VALID,23.4505,VALID,332,VALID,0.494922,
2011-03-27, 03:23:04,VALID,1000.82,VALID,0,INVALID,163.769,VALID,0,VALID,23.4311,VALID,291,VALID,0.324609,
2011-03-27, 03:24:04,VALID,1000.78,VALID,0,INVALID,163.784,VALID,0,VALID,23.408,VALID,330,VALID,0.530078,
2011-03-27, 03:25:04,VALID,1000.79,VALID,0,INVALID,163.784,VALID,0.100563,VALID,23.4487,VALID,353,VALID,0.674609,
2011-03-27, 03:26:04,VALID,1000.81,VALID,0,INVALID,163.784,VALID,0,VALID,23.4293,VALID,348,VALID,0.259375,
2011-03-27, 03:27:04,VALID,1000.81,VALID,0,INVALID,163.792,VALID,0.100563,VALID,23.4275,VALID,348,VALID,0.539063,
2011-03-27, 03:28:04,VALID,1000.77,VALID,0,INVALID,163.777,VALID,0,VALID,23.4293,VALID,356,VALID,0.589844,
2011-03-27, 03:29:04,VALID,1000.75,VALID,0,INVALID,163.784,VALID,0,VALID,23.3886,VALID,341,VALID,0.748438,
2011-03-27, 03:30:04,VALID,1000.73,VALID,0,INVALID,163.784,VALID,0,VALID,23.4505,VALID,336,VALID,0.0359375,
2011-03-27, 03:31:04,VALID,1000.7,VALID,0,INVALID,163.807,VALID,0,VALID,23.4293,VALID,349,VALID,0.349609,
2011-03-27, 03:32:04,VALID,1000.71,VALID,0,INVALID,163.792,VALID,0,VALID,23.4311,VALID,346,VALID,0.532031,
2011-03-27, 03:33:04,VALID,1000.69,VALID,0,INVALID,163.769,VALID,0,VALID,23.4098,VALID,351,VALID,0.321094,
2011-03-27, 03:34:04,VALID,1000.69,VALID,0,INVALID,163.777,VALID,0,VALID,23.4098,VALID,351,VALID,0.0101562,
2011-03-27, 03:35:04,VALID,1000.67,VALID,0,INVALID,163.784,VALID,0,VALID,23.3904,VALID,351,VALID,0.210938,
2011-03-27, 03:36:04,VALID,1000.64,VALID,0,INVALID,163.784,VALID,0,VALID,23.3904,VALID,354,VALID,0.711328,
2011-03-27, 03:37:04,VALID,1000.64,VALID,0,INVALID,163.792,VALID,0,VALID,23.3709,VALID,351,VALID,0.275,
2011-03-27, 03:38:04,VALID,1000.62,VALID,0,INVALID,163.792,VALID,0.100563,VALID,23.3904,VALID,348,VALID,0.478906,
2011-03-27, 03:39:04,VALID,1000.62,VALID,0,INVALID,163.823,VALID,0.100563,VALID,23.3302,VALID,358,VALID,0.563672,
2011-03-27, 03:40:04,VALID,1000.6,VALID,0,INVALID,163.8,VALID,0.100563,VALID,23.3514,VALID,355,VALID,0.257813,